Flag for U.S.A. Weather past 2 weeks in Houston, Texas, U.S.A.

Now
84 °F

Scattered clouds.


Feels Like: 92 °F
Forecast: 80 / 90 °F
Wind: 9 mph from South

Location: Houston Hobby Airport

Current Time: Sep 1, 2014 at 9:10:46 PM

Latest Report: Sep 1, 2014 at 7:53 PM


Visibility: 10 mi

Pressure: 29.92 "Hg

Humidity: 74%

Dew point: 75 °F

Location of HoustonLocation

Historic Weather in Houston — Graph

°F

Houston temperature yesterday

Maximum temperature yesterday: 84 °F (at 4:53 PM)
Minimum temperature yesterday: 75 °F (at 9:53 AM)
Average temperature yesterday: 79 °F

Past Weeks' High & Low Weather Summary

 TemperatureHumidityPressure
High97 °F (Aug 24, 3:53 PM)94% (Aug 21, 4:53 AM)30.10 "Hg (Aug 21, 4:53 AM)
Low75 °F (Aug 31, 9:53 AM)37% (Aug 24, 3:53 PM)29.83 "Hg (Aug 29, 4:53 PM)
Average83 °F74%29.96 "Hg
* Reported Aug 17 7:53 PM — Sep 1 7:53 PM, Houston, Weather by CustomWeather, © 2014

Note: Actual official high and low records may vary slightly from our data, if they occured in-between our weather recording intervals... More about our weather records

Advertising

Houston weather history for previous 24 hours

 ConditionsComfort  
Time TempWeatherWind HumidityBarometerVisibility
7:53 PM
Sep 1
84 °FScattered clouds.9 mph74%29.92 "Hg10 mi
6:53 PM87 °FScattered clouds.9 mph65%29.91 "Hg10 mi
5:53 PM90 °FScattered clouds.10 mph57%29.90 "Hg10 mi
4:53 PM90 °FScattered clouds.12 mph57%29.90 "Hg10 mi
3:53 PM91 °FBroken clouds.10 mph56%29.91 "Hg10 mi
2:53 PM92 °FScattered clouds.9 mph54%29.93 "Hg10 mi
1:53 PM90 °FScattered clouds.10 mph57%29.95 "Hg10 mi
12:53 PM91 °FScattered clouds.14 mph60%29.96 "Hg10 mi
11:53 AM91 °FScattered clouds.9 mph61%29.97 "Hg10 mi
10:53 AM89 °FScattered clouds.No wind65%29.97 "Hg10 mi
9:53 AM85 °FPartly sunny.7 mph77%29.97 "Hg10 mi
8:53 AM83 °FScattered clouds.5 mph82%29.97 "Hg10 mi
7:53 AM78 °FPassing clouds.No wind90%29.96 "Hg10 mi
6:53 AM77 °FPassing clouds.3 mph94%29.95 "Hg10 mi
5:53 AM77 °FPassing clouds.No wind94%29.95 "Hg10 mi
4:53 AM77 °FPassing clouds.3 mph94%29.94 "Hg10 mi
3:53 AM77 °FPassing clouds.3 mph94%29.94 "Hg10 mi
2:53 AM78 °FPassing clouds.No wind93%29.95 "Hg10 mi
1:53 AM78 °FPassing clouds.No wind93%29.96 "Hg10 mi
12:53 AM79 °FClear.5 mph90%29.96 "Hg10 mi
11:53 PM
Aug 31
79 °FPassing clouds.No wind90%29.97 "Hg10 mi
10:53 PM79 °FPassing clouds.5 mph88%29.98 "Hg10 mi
9:53 PM78 °FPartly cloudy.5 mph87%29.97 "Hg10 mi
Weather by CustomWeather, © 2014

See weather overviewHow to use our weather pages